EDT,Max TemperatureF,Mean TemperatureF,Min TemperatureF,Max Dew PointF,MeanDew PointF,Min DewpointF,Max Humidity, Mean Humidity, Min Humidity, Max Sea Level PressureIn, Mean Sea Level PressureIn, Min Sea Level PressureIn, Max VisibilityMiles, Mean VisibilityMiles, Min VisibilityMiles, Max Wind SpeedMPH, Mean Wind SpeedMPH, Max Gust SpeedMPH,PrecipitationIn, CloudCover, Events, WindDirDegrees
2011-10-1,54,46,38,41,38,36,89,76,63,30.20,30.10,30.00,10,10,10,16,8,22,0.00,5,,329
2011-10-2,62,49,36,39,35,32,100,68,35,30.22,30.16,30.10,10,9,2,15,7,20,0.00,0,,311
2011-10-3,68,55,41,43,38,34,82,58,34,30.21,30.17,30.11,10,10,10,13,4,17,0.00,1,,289
2011-10-4,74,58,42,50,45,40,89,62,35,30.31,30.26,30.20,10,10,10,8,1,12,0.00,0,,205
2011-10-5,77,63,48,55,51,47,100,74,47,30.33,30.27,30.23,10,10,8,9,3,13,0.00,0,,79
2011-10-6,81,67,52,54,49,43,93,60,26,30.30,30.27,30.25,10,10,10,9,4,12,0.00,0,,81
2011-10-7,81,65,48,58,52,48,100,70,39,30.38,30.33,30.29,10,10,8,10,4,13,0.00,0,,78
2011-10-8,79,67,54,56,53,50,93,67,40,30.43,30.36,30.32,10,10,10,9,4,13,0.00,0,,153
2011-10-9,74,61,47,52,48,46,83,62,41,30.38,30.31,30.25,10,10,10,12,4,13,0.00,0,,108
2011-10-10,80,67,54,54,51,48,83,59,35,30.25,30.17,30.07,10,10,10,13,7,17,0.00,0,,102
2011-10-11,72,64,56,56,52,48,83,66,49,30.06,30.01,29.94,10,10,10,15,6,18,0.00,6,,119
2011-10-12,67,62,57,57,55,54,93,83,73,29.94,29.86,29.76,10,10,9,10,4,14,0.00,6,,101
2011-10-13,65,61,57,61,58,55,100,97,93,29.73,29.60,29.53,10,7,1,21,6,25,0.93,7,Rain,199
2011-10-14,67,59,50,56,44,33,93,62,31,29.82,29.72,29.61,10,10,8,29,12,41,0.11,2,Rain,256
2011-10-15,64,54,44,40,38,37,71,55,39,30.05,29.97,29.84,10,10,10,23,12,31,0.00,0,,252
2011-10-16,78,62,46,50,43,37,71,52,33,30.07,29.95,29.81,10,10,10,28,13,37,0.00,1,,207
2011-10-17,69,60,51,49,40,36,63,49,34,30.00,29.92,29.86,10,10,10,13,3,15,0.00,3,,353
2011-10-18,70,59,47,55,47,38,93,73,52,29.85,29.70,29.57,10,9,3,24,7,30,0.58,4,Rain-Thunderstorm,21
2011-10-19,50,46,41,49,45,39,100,95,89,29.56,29.45,29.37,10,5,1,24,10,33,1.16,8,Rain,265
2011-10-20,44,42,39,40,39,37,93,85,76,30.01,29.69,29.44,10,9,3,26,15,36,0.36,8,Rain,252
2011-10-21,57,46,35,39,36,33,92,72,51,30.15,30.09,30.00,10,10,10,14,5,15,0.00,3,,235
2011-10-22,60,46,32,39,35,32,96,68,40,30.21,30.15,30.12,10,10,10,12,5,16,0.00,0,,196
2011-10-23,63,51,38,45,41,35,92,69,46,30.14,30.10,30.05,10,10,10,10,5,12,T,2,Rain,172
2011-10-24,69,57,45,48,43,39,80,61,42,30.21,30.10,30.06,10,10,9,21,8,28,0.02,1,Rain,235
2011-10-25,71,55,38,46,41,37,93,65,37,30.26,30.15,29.99,10,10,7,15,8,20,0.00,0,,169
2011-10-26,64,60,55,61,54,38,97,72,47,30.00,29.90,29.83,10,5,2,18,10,26,0.81,6,Rain-Thunderstorm,199
2011-10-27,61,50,39,59,49,36,100,88,76,30.13,29.90,29.78,10,8,2,15,8,22,0.38,7,Rain,314
2011-10-28,41,38,34,37,36,33,100,90,79,30.18,30.13,30.10,10,10,8,15,8,18,0.04,5,Rain,46
2011-10-29,55,42,28,38,31,27,100,71,41,30.17,30.12,30.09,10,6,0,15,5,18,0.00,1,Fog,226
2011-10-30,57,43,28,33,28,26,92,63,33,30.30,30.21,30.16,10,10,10,13,5,15,0.00,0,,180
2011-10-31,59,47,35,40,34,29,71,56,40,30.21,30.14,30.10,10,10,9,18,7,23,0.02,4,Rain,194